User: anonymous   Login
Location: Allie Creek
(37.5926°N, 89.8526°W)
Time: 11:26:34
(UTC+00:00)
Language:

USA 281 - Orbit

View from above orbital plane
View from above orbital plane
View from above satellite
View from above satellite

Ground track
Ground track

The orbit data is extracted from the following two-line orbital elements,

1 43145U 18005A   24044.74648991 0.00000000  00000-0  00000-0 0    06
2 43145 106.0122  67.0727 0000831 130.5055 229.4944 13.48060640    07
Epoch (UTC): 13 February 2024 17:54:56
Eccentricity: 0.0000831
inclination: 106.0122°
perigee height: 1079 km
apogee height: 1080 km
right ascension of ascending node: 67.0727°
argument of perigee: 130.5055°
revolutions per day: 13.48060640
mean anomaly at epoch: 229.4944°
orbit number at epoch: 0

The dashed part of the orbit path shows where the satellite is in the earth's shadow,  

DLR